CZ-6A DEB, 56670

Orbit data source: Space-Track

CZ-6A DEB, 56670 is space debris in SSO originally from a launch on Fri, 11 Nov 2022 UTC launched from the Taiyaun Space Center, China (TSC). Debris objects in space refer to the collection of defunct objects orbiting the Earth. Examples of debris include non-operational satellites, rocket bodies, and fragments generated from explosions, collisions, or faulty payload assembly.

Loading next visibility...
Identifier
56670, 2022-151AGW
Orbit
SSO
Country
Flag of CNCN / PRC
Related business
Manufacturer
SAST
Mission
Spacecraft
Bus & Motor
Unknown
Mass
Unknown
Launch date (UTC)
2022-11-11 (3 years ago)
Launch vehicle
Unknown
Launch site
Taiyaun Space Center, China (TSC)
Object type
Payload
Rocket body
Debris
Shape & HBR
Unknown shape, 0.1 m
Radar Cross Section
Small (<0.1 m²)

Expand to show TLE details & history
Last TLE update: 19 hours ago

TLE from 19 hours ago
0 CZ-6A DEB
1 56670U 22151AGW 25351.26107773  .00001515  00000-0  78492-3 0  9999
2 56670  98.8027 350.3144 0045115  81.6940 278.9346 14.15827030136824
Epoch: 2025-12-17T06:15Z
TLE epoch observation values (Epoch: 2025-12-17T06:15:57.115Z)
Latitude
-0.00003°
Longitude
170.19295°
Altitude
837.491 km
Speed
7.437 km/s
True Right ascension
23h 21m 15s
True Declination
0° 00' 00"
Sunlit
Object was in daylight at epoch
Visualization orbit readout
Latitude
Unknown
Longitude
Unknown
Altitude
Unknown
Speed
Unknown
Apparent Right ascension
Unknown
Apparent Declination
Unknown
Sunlit
N/A
Visualization observer readout
Local Sidereal Time
00:25:24
Azimuth
Unknown
Elevation
Unknown
Doppler factor
Unknown
Orbital elements
Apogee altitude
869.218 km
Perigee altitude
804.119 km
Semi-major axis
7,214.806 km
Eccentricity
0.00451
Inclination
98.8027°
RAAN
350.3144°
Arg. of periapsis
81.694°
True anomaly
278.42345°
Mean anomaly
278.9346°
Eccentric anomaly
278.67907°
Mean motion
3.54165 °/min
Orbital period
101.65 mins
BSTAR
0.00078492
Loading maneuver chart data...
Computing Atmospheric mass density...
Loading historical data...
Loading historical data...
Loading historical data...
Loading historical data...
Loading historical data...
Loading historical data...
Loading historical data...

Documentation

Showing up to 5 results
|